Weather in Maksatixa

Russia / Tver Oblast     57°47′36″N   35°52′30″E
temp.,
°C
wind,
m/s
gust,
m/s
humid.,
%
clouds,
%
prec.,
mm/h
press.,
hPa
HPBL,
m
2 march, tue
tue200:00+1w51292100 0.0 1010881
03:00+1wnw51294100 0.1 1009755
06:00+1wnw41189100 0.1 1007984
09:00+1wnw51087100 0.1 10081034
12:00+1wnw5108696 0.1 10081051
15:00+1nw6118497 0.1 10081102
18:00−1nw51390100 0.1 10091227
21:00−2nw5138697 0.3 1012907
3 march, wed
wed300:00−5nw4138653 0.0 1013577
03:00−6nw4128826 0.0 1016466
06:00−6wnw312920 0.0 1015370
09:00−2wnw4109238 0.1 1015927
12:00−1wnw5986100 0.1 10131018
15:00−1w61086100 0.2 1012877
18:00−1w51189100 0.1 1009902
21:00−1w51292100 0.1 1007910
4 march, thu
thu400:000wsw41296100 0.1 1003773
03:000w61297100 1.4 1000923
06:00+1w61387100 0.6 9981185
09:00−3wnw41185100 0.9 999731
12:00−2nw4781100 0.0 999749
15:00−1nw3579100 0.0 999898
18:00−5n269295 0.2 1000139
21:00−8nw229364 0.2 100227
5 march, fri
fri500:00−9wnw22930 0.0 100324
03:00−9wnw269629 0.1 1004169
06:00−9wnw379599 0.0 1005289
09:00−8wnw269486 0.2 1006337
12:00−5nw358699 0.2 1008718
15:00−4nw257898 0.4 1009828
18:00−7wnw2488100 0.4 101190
21:00−9nw239482 0.4 101364
6 march, sat
sat600:00−10nnw249593 0.0 1014120
03:00−13nw229554 0.0 101529
06:00−14nw22960 0.0 101636
09:00−13nw259422 0.0 1016246
12:00−10nw258022 0.0 1016666
15:00−8w247736 0.0 1015714
18:00−10ssw23863 0.0 101259
21:00−9ssw4118239 0.0 1009421